Погода в Мезени

Россия / Архангельская область     65°50′38″N   44°14′36″E
темп.,
°C
ветер,
м/с
пор.,
м/с
влажн.,
%
обл.,
%
осадки,
мм/ч
давл.,
гПа
погр.,
м
27 июля, вт
вт2700:00+8сз4988100 0.0 1015964
03:00+8сз51089100 0.1 1016904
06:00+8сз51083100 0.1 10161028
09:00+9сз61079100 0.1 10161030
12:00+8сз6979100 0.0 1016997
15:00+9сз6976100 0.1 10171093
18:00+8ссз5878100 0.1 10171048
21:00+7сз4879100 0.1 1017796
28 июля, ср
ср2800:00+7сз3785100 0.0 1016608
03:00+7зсз2685100 0.0 1016416
06:00+6з2384100 0.0 1014218
09:00+9ююз3880100 0.1 1011408
12:00+9вюв119699 2.9 101062
15:00+12ю1291100 3.3 1008274
18:00+12св238998 0.1 1008415
21:00+9всв2596100 0.1 1008232
29 июля, чт
чт2900:00+8в2496100 0.0 1007134
03:00+8в239190 0.0 100775
06:00+10вюв247490 0.0 1006266
09:00+12вюв2253100 0.0 10051116
12:00+14вюв3249100 0.0 10041444
15:00+14вюв3350100 0.0 10031350
18:00+14в3456100 0.0 1001986
21:00+10вюв267372 0.0 1001159
30 июля, пт
пт3000:00+7в278850 0.0 1000180
03:00+5всв269825 0.0 1000142
06:00+9в368310 0.0 1000313
09:00+14в3361100 0.0 999871
12:00+17вюв3350100 0.0 9981344
15:00+17вюв4456100 0.0 9981268
18:00+16юв3664100 0.0 998955
21:00+11вюв31096100 1.2 997440
31 июля, сб
сб3100:00+11вюв4998100 0.5 995480
03:00+11юв2699100 3.4 993257
06:00+12ююз2699100 2.2 992359
09:00+16юз368696 2.7 993672
12:00+16зюз4985100 2.1 993852
15:00+19юз487431 3.9 9941458
18:00+17юз368772 1.7 994371
21:00+13ююз129598 2.7 99450